Regional Weather Roundup
Issued by NWS

Home | Current Version | Previous Version | Graphics & Text | Print | Product List | Glossary On
Versions: 1 2 3 4 5 6 7 8 9 10 11 12 13 14 15 16 17 18 19 20 21 22 23 24 25 26 27 28 29 30 31 32 33 34 35 36 37 38 39 40 41 42 43 44 45 46 47 48 49 50
000
ASUS43 KTOP 212159
RWRKS

WEATHER ROUNDUP FOR KANSAS
NATIONAL WEATHER SERVICE GOODLAND KS
500 PM CDT SAT OCT 21 2017

NOTE:  "FAIR" INDICATES FEW OR NO CLOUDS BELOW 12,000 FEET WITH NO
SIGNIFICANT WEATHER AND/OR OBSTRUCTIONS TO VISIBILITY.

KSZ001>006-013>018-027>032-041>047-212300-
NORTHWEST KANSAS

CITY           SKY/WX    TMP DP  RH WIND       PRES   REMARKS
GOODLAND       SUNNY     61  18  18 NW20G31   29.97R
HAYS           PTSUNNY   62  38  40 N20       29.93R
HILL CITY      CLOUDY    63  34  33 N14       29.95R
RUSSELL        PTSUNNY   64  42  44 NW24      29.88R
$$

KSZ061>065-074>080-084>089-212300-
SOUTHWEST KANSAS

CITY           SKY/WX    TMP DP  RH WIND       PRES   REMARKS
DODGE CITY     CLOUDY    59  32  36 N24G33    29.94R
ELKHART          N/A     62  26  25 N13         N/A
GARDEN CITY    CLOUDY    62  29  28 N21       29.97R
GREAT BEND     MOSUNNY   65  40  39 NW23      29.88R
LIBERAL        CLOUDY    59  32  36 N16       29.98R
$$

KSZ066>073-081>083-090>101-212300-
SOUTHEAST KANSAS

CITY           SKY/WX    TMP DP  RH WIND       PRES   REMARKS
CHANUTE        CLOUDY    76  65  68 S16       29.80F
COFFEYVILLE    CLOUDY    77  64  64 S16       29.81F
HUTCHINSON     PTSUNNY   70  41  34 NW15G26   29.81R
MEDICINE LODGE   N/A     65  44  46 N6        29.83R
NEWTON         CLOUDY    68  46  45 N12       29.83R
PARSONS        CLOUDY    77  63  61 S12G22    29.82F
WICHITA INTL   CLOUDY    63  59  87 E6        29.80R
WICHITA JABRA  TSTM      58  57  97 NE7       29.80F
WICHITA MCCONL LGT RAIN  60  55  84 E12       29.80S
WINFIELD       CLOUDY    75  65  70 S10       29.79S
$$

KSZ007>012-019>026-033>040-048>060-102>105-212300-
NORTHEAST KANSAS

CITY           SKY/WX    TMP DP  RH WIND       PRES   REMARKS
CONCORDIA      SUNNY     65  42  43 N22G28    29.86R
EMPORIA        LGT RAIN  63  59  87 NW9       29.80R
LAWRENCE       CLOUDY    75  65  70 SE14      29.77F
MANHATTAN      CLOUDY    68  48  48 NW8       29.81R
OLATHE IND     CLOUDY    75  64  68 S10       29.81S
OLATHE EXE     CLOUDY    74  64  71 S9        29.81S
SALINA         CLOUDY    70  45  40 N22G28    29.84R
TOPEKA BILLARD CLOUDY    68  63  84 W6        29.78R
TOPEKA FORBES  CLOUDY    75  65  70 S16       29.78R
$$




USA.gov is the U.S. government's official web portal to all federal, state and local government web resources and services.